Capitol Logistics 3257




KRSW
Southwest Florida International Airport
Fort Myers, Florida
KMIA
Miami International Airport
Miami, Florida

Activity Log

Date Flight Route Aircraft Duration
04/05/2021 CPX3257 CYY CYY9 SF34 0h 35m
03/20/2021 CPX3257 SCUBY7 COOPR CORFU V35 CURVE ANGRO SF34 1h 00m
06/17/2019 CPX657 CYY CYY9 SF34 0h 32m

Route Details

Aircraft Information
Primary: Saab 340AF
Backup: Not Available
Route Data
Distance: 91nm
Duration: 1h 00m
Recm'd Route: CYY CYY9
Origin Wx: KRSW 020553Z AUTO 15004KT 10SM CLR 25/23 A3006 RMK AO2 SLP177 T02500228 10300 20250 58003 $
Dest. Wx: KMIA 020553Z 00000KT 10SM FEW028 FEW250 29/25 A3006 RMK AO2 SLP179 OCNL LTGIC DSNT E-SE CB DSNT E-SE MOV N 60000 T02890250 10306 20289 58010 $
Notes: